CW4591 Weather Reports


Display with metric or nautical units.
time (UTC)temp
F
wind
direction
speed
MPH
gust
MPH
rain 1hr
in
rain 24hr
in
rain mn
in
humidity
%
barometer
mb
20260905023013 68 50 0.0 0.0 0.00 0.00 0.00 52 1012.7
20260905021505 68 51 0.0 2.0 0.00 0.00 0.00 49 1012.7
20260905020003 69 50 0.0 3.0 0.00 0.00 0.00 46 1012.8
20260905014503 69 172 0.0 1.0 0.00 0.00 0.00 47 1012.8
20260905013001 70 172 0.0 5.0 0.00 0.00 0.00 43 1013.0
20260905011617 70 253 1.0 4.0 0.00 0.00 0.00 43 1013.0
20260905010057 69 183 0.0 4.0 0.00 0.00 0.00 45 1013.1
20260905004553 68 311 0.0 2.0 0.00 0.00 0.00 52 1013.4
20260905003055 67 311 0.0 0.0 0.00 0.00 0.00 54 1013.5
20260905001600 66 311 0.0 2.0 0.00 0.00 0.00 56 1013.6
20260905000045 65 311 0.0 0.0 0.00 0.00 0.00 58 1013.9
20260904234544 65 311 0.0 0.0 0.00 0.00 0.00 58 1013.8
20260904233053 64 311 0.0 0.0 0.00 0.00 0.00 57 1013.9
20260904231542 63 311 0.0 0.0 0.00 0.00 0.00 57 1014.0
20260904230044 63 359 0.0 1.0 0.00 0.00 0.00 59 1014.0
20260904224541 62 307 2.0 5.0 0.00 0.00 0.00 60 1014.1
20260904223040 63 254 1.0 4.0 0.00 0.00 0.00 60 1014.1
20260904221541 63 283 0.0 3.0 0.00 0.00 0.00 60 1014.1
20260904220040 63 280 2.0 5.0 0.00 0.00 0.00 60 1014.3
20260904214538 63 277 2.0 5.0 0.00 0.00 0.00 59 1014.4
20260904213037 63 339 0.0 5.0 0.00 0.00 0.00 61 1014.4
20260904211538 63 339 1.0 5.0 0.00 0.00 0.00 60 1014.5
20260904210036 65 262 1.0 4.0 0.00 0.00 0.00 54 1014.4
20260904204534 65 207 0.0 10.0 0.00 0.00 0.00 46 1014.3
20260904203040 64 271 2.0 8.0 0.00 0.00 0.00 46 1014.3
20260904201536 63 219 2.0 10.0 0.00 0.00 0.00 47 1014.4
20260904200031 63 225 4.0 12.0 0.00 0.00 0.00 46 1014.4
20260904194527 62 233 1.0 5.0 0.00 0.00 0.00 50 1014.5
20260904193024 61 181 4.0 9.0 0.00 0.00 0.00 51 1014.3
20260904191516 57 184 5.0 11.0 0.00 0.00 0.00 58 1014.4
20260904190011 53 190 1.0 7.0 0.00 0.00 0.00 76 1014.6
20260904184507 51 359 0.0 0.0 0.00 0.00 0.00 81 1014.8
20260904183004 50 312 0.0 0.0 0.00 0.00 0.00 82 1014.8
20260904181602 49 312 0.0 3.0 0.00 0.00 0.00 83 1014.8
20260904180105 48 313 0.0 4.0 0.00 0.00 0.00 83 1014.8
20260904174607 48 313 0.0 5.0 0.00 0.00 0.00 84 1015.1
20260904173114 47 170 1.0 7.0 0.00 0.00 0.00 87 1014.9
20260904171557 45 135 1.0 4.0 0.00 0.00 0.00 89 1015.0
20260904170101 45 256 0.0 0.0 0.00 0.00 0.00 88 1015.2
20260904164547 44 257 0.0 0.0 0.00 0.00 0.00 89 1015.2
20260904163047 44 256 0.0 0.0 0.00 0.00 0.00 89 1015.6
20260904161545 43 256 0.0 0.0 0.00 0.00 0.00 90 1015.8
20260904160046 43 256 0.0 0.0 0.00 0.00 0.00 90 1016.1
20260904154544 42 256 0.0 0.0 0.00 0.00 0.00 91 1016.1
20260904153054 42 257 0.0 0.0 0.00 0.00 0.00 91 1016.0
20260904151547 42 256 0.0 0.0 0.00 0.00 0.00 90 1015.7
20260904150050 42 256 0.0 0.0 0.00 0.00 0.00 89 1015.9
20260904144546 42 257 0.0 0.0 0.00 0.00 0.00 89 1015.7
20260904143040 42 359 0.0 0.0 0.00 0.00 0.00 89 1015.9
20260904141540 42 256 0.0 0.0 0.00 0.00 0.00 89 1016.1
20260904140039 42 256 0.0 0.0 0.00 0.00 0.00 89 1016.1
20260904134537 42 256 0.0 0.0 0.00 0.00 0.00 89 1016.0
20260904133035 42 256 0.0 0.0 0.00 0.00 0.00 88 1015.8
20260904131533 42 256 0.0 0.0 0.00 0.00 0.00 89 1015.7
20260904130035 42 257 0.0 0.0 0.00 0.00 0.00 88 1015.5
20260904124531 43 257 0.0 0.0 0.00 0.00 0.00 88 1015.5
20260904123029 43 256 0.0 0.0 0.00 0.00 0.00 87 1015.4
20260904121528 43 256 0.0 0.0 0.00 0.00 0.00 87 1015.4
20260904120028 43 359 0.0 0.0 0.00 0.00 0.00 86 1015.3
20260904114527 43 256 0.0 0.0 0.00 0.00 0.00 85 1015.5
20260904113036 43 359 0.0 0.0 0.00 0.00 0.00 85 1015.4
20260904111524 43 256 0.0 3.0 0.00 0.00 0.00 84 1015.4
20260904110023 44 257 0.0 0.0 0.00 0.00 0.00 84 1015.2
20260904104523 44 256 0.0 5.0 0.00 0.00 0.00 83 1015.3
20260904103020 44 280 0.0 4.0 0.00 0.00 0.00 84 1015.1
20260904101520 43 264 2.0 4.0 0.00 0.00 0.00 86 1015.1
20260904100019 44 264 0.0 0.0 0.00 0.00 0.00 86 1014.9
20260904094516 44 264 0.0 2.0 0.00 0.00 0.00 84 1014.9
20260904093016 44 264 0.0 0.0 0.00 0.00 0.00 84 1014.8
20260904091515 44 264 0.0 0.0 0.00 0.00 0.00 83 1014.7
20260904090014 44 264 0.0 0.0 0.00 0.00 0.00 82 1014.8
20260904084513 44 264 0.0 0.0 0.00 0.00 0.00 83 1015.1
20260904083011 44 264 0.0 0.0 0.00 0.00 0.00 82 1014.7
20260904081509 44 264 0.0 0.0 0.00 0.00 0.00 81 1014.8
20260904080008 44 359 0.0 0.0 0.00 0.00 0.00 81 1014.7
20260904074507 45 264 0.0 0.0 0.00 0.00 0.00 80 1014.9
20260904073007 45 264 0.0 0.0 0.00 0.00 0.00 79 1014.9
20260904071507 45 264 0.0 0.0 0.00 0.00 0.00 78 1015.0
20260904070006 45 264 0.0 2.0 0.00 0.00 0.00 78 1014.9
20260904064505 45 264 0.0 0.0 0.00 0.00 0.00 78 1014.8
20260904063004 45 264 0.0 0.0 0.00 0.00 0.00 78 1015.1
20260904061503 45 264 1.0 3.0 0.00 0.00 0.00 78 1015.0
20260904060003 45 264 0.0 0.0 0.00 0.00 0.00 77 1015.1
20260904054505 46 359 0.0 0.0 0.00 0.00 0.00 75 1015.2
20260904053104 46 264 0.0 3.0 0.00 0.00 0.00 74 1015.1
20260904051606 47 264 0.0 0.0 0.00 0.00 0.00 73 1015.2
20260904050059 47 359 0.0 0.0 0.00 0.00 0.00 72 1015.4
20260904044600 48 264 0.0 0.0 0.00 0.00 0.00 70 1015.2
20260904043114 49 264 0.0 2.0 0.00 0.00 0.00 69 1015.3
20260904041559 50 264 1.0 3.0 0.00 0.00 0.00 66 1015.5
20260904040056 50 263 0.0 3.0 0.00 0.00 0.00 66 1015.3
20260904034555 51 264 0.0 0.0 0.00 0.00 0.00 65 1015.5
20260904033054 52 264 1.0 4.0 0.00 0.00 0.00 63 1015.4
20260904031555 52 222 0.0 3.0 0.00 0.00 0.00 61 1015.5
20260904030053 53 222 1.0 3.0 0.00 0.00 0.00 60 1015.6
20260904024554 53 139 0.0 2.0 0.00 0.00 0.00 60 1015.6